This demonstration page uses our WeatherBlox Daily Observations layout. Learn more.

Left ArrowRight Arrow

Hourly Observations for March 4, 2022

Temp ( °F °C ) Dew Point ( °F °C ) Humidity (%) Winds ( mph kmh ) Pressure ( in mb ) Visibility ( mi km ) Precip ( " mm )
12:59 am 00:59 Partly Cloudy 45 7.2 25 -3.9 46 46 NNE 18 30 30.38 1029 10 16 0.00 0.00
1:59 am 01:59 Partly Cloudy 43 6.1 20 -6.7 40 40 NNE 15 24 30.40 1030 10 16 0.00 0.00
2:59 am 02:59 Mostly Clear 42 5.6 23 -5 47 47 NE 15 24 30.42 1030 10 16 0.00 0.00
3:59 am 03:59 Mostly Clear 41 5 23 -5 49 49 NE 17 28 30.44 1031 10 16 0.00 0.00
4:59 am 04:59 Partly Cloudy 40 4.4 24 -4.4 53 53 ENE 15 24 30.46 1032 10 16 0.00 0.00
5:59 am 05:59 Mostly Cloudy 40 4.4 22 -5.6 49 49 ENE 15 24 30.49 1033 10 16 0.00 0.00
6:59 am 06:59 Mostly Cloudy 39 3.9 22 -5.6 50 50 NE 15 24 30.52 1033 10 16 0.00 0.00
7:59 am 07:59 Mostly Cloudy 39 3.9 23 -5 53 53 ENE 16 26 30.55 1035 10 16 0.00 0.00
8:59 am 08:59 Mostly Cloudy 39 3.9 22 -5.6 50 50 ENE 13 20 30.58 1036 10 16 0.00 0.00
9:59 am 09:59 Partly Cloudy 40 4.4 22 -5.6 49 49 ENE 10 17 30.58 1036 10 16 0.00 0.00
10:59 am 10:59 Sunny 43 6.1 23 -5 45 45 ENE 12 19 30.58 1036 10 16 0.00 0.00
11:59 am 11:59 Mostly Sunny 42 5.6 25 -3.9 51 51 ENE 10 17 30.56 1035 10 16 0.00 0.00
12:59 pm 12:59 Mostly Sunny 42 5.6 25 -3.9 51 51 E 9 15 30.54 1034 10 16 0.00 0.00
1:59 pm 13:59 Mostly Sunny 43 6.1 26 -3.3 51 51 ENE 10 17 30.51 1033 10 16 0.00 0.00
2:59 pm 14:59 Sunny 43 6.1 27 -2.8 53 53 ENE 10 17 30.49 1033 10 16 0.00 0.00
3:59 pm 15:59 Partly Cloudy 42 5.6 27 -2.8 55 55 ENE 10 17 30.47 1032 10 16 0.00 0.00
4:59 pm 16:59 Mostly Cloudy 41 5 28 -2.2 60 60 E 7 11 30.47 1032 10 16 0.00 0.00
5:59 pm 17:59 Mostly Cloudy 40 4.4 28 -2.2 63 63 E 8 13 30.47 1032 10 16 0.00 0.00
6:59 pm 18:59 Mostly Cloudy 39 3.9 28 -2.2 65 65 ESE 7 11 30.48 1032 10 16 0.00 0.00
7:59 pm 19:59 Mostly Cloudy 39 3.9 28 -2.2 65 65 ESE 7 11 30.49 1033 10 16 0.00 0.00
8:59 pm 20:59 Mostly Cloudy 39 3.9 28 -2.2 65 65 SE 5 7 30.49 1033 10 16 0.00 0.00
9:59 pm 21:59 Mostly Cloudy 40 4.4 29 -1.7 65 65 Calm 30.49 1032 10 16 0.00 0.00
10:59 pm 22:59 Mostly Cloudy 40 4.4 30 -1.1 68 68 ESE 3 6 30.49 1032 10 16 0.00 0.00
11:59 pm 23:59 Mostly Cloudy 43 6.1 30 -1.1 60 60 Calm 30.48 1032 10 16 0.00 0.00

Powered by AerisWeather